Regional Weather Roundup
Issued by NWS

Home | Current Version | Previous Version | Graphics & Text | Print | Product List | Glossary On
Versions: 1 2 3 4 5 6 7 8 9 10 11 12 13 14 15 16 17 18 19 20 21 22 23 24 25 26 27 28 29 30 31 32 33 34 35 36 37 38 39 40 41 42 43 44 45 46 47 48 49 50
000
ASUS45 KCYS 171010
RWRWY

WYOMING REGIONAL WEATHER ROUNDUP
NATIONAL WEATHER SERVICE CHEYENNE WY
300 AM MST SUN DEC 17 2017

NOTE:  "FAIR" INDICATES FEW OR NO CLOUDS BELOW 12,000 FEET
WITH NO SIGNIFICANT WEATHER AND/OR OBSTRUCTIONS TO VISIBILITY.

WYZ001-171100-
YELLOWSTONE NATIONAL PARK

CITY           SKY/WX    TMP DP  RH WIND       PRES   REMARKS
LK YELLOWSTONE   N/A     -5  -9  83 CALM      30.00S
W YELLOWSTONE  NOT AVBL

$$
WYZ002>013-054>058-071-098>099-171100-
NORTHERN WYOMING

CITY           SKY/WX    TMP DP  RH WIND       PRES   REMARKS
JACKSON        FAIR       4   1  88 NE3       30.04R
CODY           CLOUDY    22  20  92 S5        30.00R WCI  16
GREYBULL       CLOUDY    24  22  91 CALM      30.02S
WORLAND        CLOUDY    26  25  96 S5        30.01F WCI  20
SHERIDAN       FOG       22  20  92 CALM      29.98S VSB 1/2
BUFFALO        CLOUDY    23  17  78 SE5       29.95F WCI  17
GILLETTE       LGT SNOW  24  23  96 SE3       29.97F FOG
HULETT         LGT SNOW  28  27  93 CALM      29.99F
NEWCASTLE      LGT SNOW  28  28 100 CALM      30.02S

$$
WYZ014>020-022>026-101>103-171100-
CENTRAL WYOMING

CITY           SKY/WX    TMP DP  RH WIND       PRES   REMARKS
BIG PINEY      FAIR      13   9  84 NW7       29.97R WCI   3
PINEDALE       PTSUNNY   14  12  92 NW10      29.97R WCI   1
DUBOIS         LGT SNOW  19  18  93 NW3       29.93S
LANDER         CLOUDY    22  21  96 CALM      29.97S
RIVERTON       CLOUDY    23  22  96 SW5       29.99S WCI  17
CASPER         CLOUDY    23  21  92 NW7       29.96S WCI  15
DOUGLAS        CLOUDY    26  25  96 MISG      29.97F

$$
WYZ021-027>030-104>119-171100-
SOUTHERN WYOMING

CITY           SKY/WX    TMP DP  RH WIND       PRES   REMARKS
EVANSTON       CLOUDY    20  19  96 NW7       30.02S WCI  11
FORT BRIDGER   PTSUNNY   21  20  94 W12G20    30.02R WCI  10
ROCK SPRINGS   CLOUDY    23  21  92 SW10      29.97R WCI  12
DIXON          CLOUDY    20  15  79 E7        29.98R WCI  11
RAWLINS        CLOUDY    24  22  91 NW6       29.92S WCI  17
SARATOGA       CLOUDY    18  18 100 S7        29.93S WCI   8
LARAMIE        FAIR      13  12  96 S7        29.87R WCI   3
CHEYENNE       CLOUDY    26  26 100 SE3       29.91R FOG
TORRINGTON     CLOUDY    29  25  85 NE9       29.99R WCI  20
PINE BLUFFS    CLOUDY    28  28 100 NE3       29.95S

$$



USA.gov is the U.S. government's official web portal to all federal, state and local government web resources and services.